INMARSAT 5-F4

Last updated on Mon Oct 20 2025 00:02:49 GMT+0000 (Coordinated Universal Time)

1 42698U 17025A 25292.13575662 .00000000 00000+0 00000+0 0 9997 2 42698 0.0151 213.4403 0000115 66.4122 213.3502 1.00269629 30861
UTC large
Height (km)
Speed (km/s)
/
Latitude / Longitude
Inclination (degrees)
Orbital Period (minutes)
Azimuth
Elevation
Range (km)
Doppler Factor

Next 0 passes for location: London (51.5072 / 0.1276)

Sorry there are no passes over London.